30 Sep
2006
30 Sep
'06
11:37 p.m.
ISS 1 25544U 98067A 06273.82407407 .00028301 00000-0 17770-3 0 7740 2 25544 051.6375 003.2827 0013472 040.8905 095.3806 15.76398831449823
6656
Age (days ago)
6656
Last active (days ago)
0 comments
1 participants
participants (1)
-
Dave Larsen PhD